Time,TemperatureF,DewpointF,PressureIn,WindDirection,WindDirectionDegrees,WindSpeedMPH,WindSpeedGustMPH,Humidity,HourlyPrecipIn,Conditions,Clouds,dailyrainin,SolarRadiationWatts/m^2,SoftwareType,DateUTC
2013-11-21 00:02:00,32.8,25.4,30.55,NE,52,1.0,1.0,74,0.00,,,0.00,0,Wunderground v.1.15,2013-11-21 05:02:00,
2013-11-21 00:04:00,32.9,25.5,30.55,NE,52,1.0,1.0,74,0.00,,,0.00,0,Wunderground v.1.15,2013-11-21 05:04:00,
2013-11-21 00:10:00,32.9,25.5,30.55,ENE,68,1.0,1.0,74,0.00,,,0.00,0,Wunderground v.1.15,2013-11-21 05:10:00,
2013-11-21 00:16:00,32.9,25.5,30.55,NE,42,1.0,1.0,74,0.00,,,0.00,0,Wunderground v.1.15,2013-11-21 05:16:00,
2013-11-21 00:18:00,32.9,25.5,30.55,NE,42,1.0,1.0,74,0.00,,,0.00,0,Wunderground v.1.15,2013-11-21 05:18:00,
2013-11-21 00:22:00,32.9,25.5,30.55,NE,51,0.0,0.0,74,0.00,,,0.00,0,Wunderground v.1.15,2013-11-21 05:22:00,
2013-11-21 00:28:00,32.9,25.5,30.55,NE,51,0.0,0.0,74,0.00,,,0.00,0,Wunderground v.1.15,2013-11-21 05:28:00,
2013-11-21 00:34:00,32.9,25.5,30.55,NE,51,0.0,1.0,74,0.00,,,0.00,0,Wunderground v.1.15,2013-11-21 05:34:00,
2013-11-21 00:40:00,32.9,25.5,30.55,NE,51,0.0,1.0,74,0.00,,,0.00,0,Wunderground v.1.15,2013-11-21 05:40:00,
2013-11-21 00:46:00,33.0,25.6,30.55,NE,51,0.0,0.0,74,0.00,,,0.00,0,Wunderground v.1.15,2013-11-21 05:46:00,
2013-11-21 00:52:00,32.9,25.5,30.55,NE,51,0.0,0.0,74,0.00,,,0.00,0,Wunderground v.1.15,2013-11-21 05:52:00,
2013-11-21 00:58:00,33.0,25.6,30.54,NE,51,1.0,3.0,74,0.00,,,0.00,0,Wunderground v.1.15,2013-11-21 05:58:00,
2013-11-21 01:04:00,32.9,25.5,30.55,NE,51,1.0,2.0,74,0.00,,,0.00,0,Wunderground v.1.15,2013-11-21 06:04:00,
2013-11-21 01:08:00,32.9,25.5,30.55,NE,53,1.0,2.0,74,0.00,,,0.00,0,Wunderground v.1.15,2013-11-21 06:08:00,
2013-11-21 01:14:00,32.9,25.5,30.54,NE,55,1.0,2.0,74,0.00,,,0.00,0,Wunderground v.1.15,2013-11-21 06:14:00,
2013-11-21 01:20:00,33.0,25.9,30.54,NE,46,1.0,1.0,75,0.00,,,0.00,0,Wunderground v.1.15,2013-11-21 06:20:00,
2013-11-21 01:26:00,33.0,25.9,30.55,NE,46,1.0,1.0,75,0.00,,,0.00,0,Wunderground v.1.15,2013-11-21 06:26:00,
2013-11-21 01:32:00,33.1,26.0,30.54,NE,46,1.0,1.0,75,0.00,,,0.00,0,Wunderground v.1.15,2013-11-21 06:32:00,
2013-11-21 01:38:00,33.2,26.1,30.55,NE,46,1.0,1.0,75,0.00,,,0.00,0,Wunderground v.1.15,2013-11-21 06:38:00,
2013-11-21 01:44:00,33.2,26.1,30.54,NE,46,0.0,1.0,75,0.00,,,0.00,0,Wunderground v.1.15,2013-11-21 06:44:00,
2013-11-21 01:50:00,33.2,26.1,30.55,NE,46,1.0,1.0,75,0.00,,,0.00,0,Wunderground v.1.15,2013-11-21 06:50:00,
2013-11-21 01:56:00,33.1,26.0,30.55,NNE,12,1.0,1.0,75,0.00,,,0.00,0,Wunderground v.1.15,2013-11-21 06:56:00,
2013-11-21 02:02:00,33.1,26.0,30.55,ENE,57,0.0,0.0,75,0.00,,,0.00,0,Wunderground v.1.15,2013-11-21 07:02:00,
2013-11-21 02:08:00,33.1,26.0,30.55,ENE,71,0.0,2.0,75,0.00,,,0.00,0,Wunderground v.1.15,2013-11-21 07:08:00,
2013-11-21 02:14:00,33.0,26.3,30.55,North,5,0.0,0.0,76,0.00,,,0.00,0,Wunderground v.1.15,2013-11-21 07:14:00,
2013-11-21 02:20:00,33.0,26.3,30.56,NNE,20,0.0,0.0,76,0.00,,,0.00,0,Wunderground v.1.15,2013-11-21 07:20:00,
2013-11-21 02:26:00,32.9,26.2,30.56,NNE,21,0.0,0.0,76,0.00,,,0.00,0,Wunderground v.1.15,2013-11-21 07:26:00,
2013-11-21 02:32:00,32.9,26.2,30.56,NNE,22,0.0,0.0,76,0.00,,,0.00,0,Wunderground v.1.15,2013-11-21 07:32:00,
2013-11-21 02:38:00,32.8,26.4,30.55,NE,40,0.0,3.0,77,0.00,,,0.00,0,Wunderground v.1.15,2013-11-21 07:38:00,
2013-11-21 02:44:00,32.7,26.3,30.55,NE,40,1.0,1.0,77,0.00,,,0.00,0,Wunderground v.1.15,2013-11-21 07:44:00,
2013-11-21 02:50:00,32.6,26.2,30.55,NE,40,0.0,0.0,77,0.00,,,0.00,0,Wunderground v.1.15,2013-11-21 07:50:00,
2013-11-21 02:56:00,32.6,26.2,30.55,NE,40,0.0,0.0,77,0.00,,,0.00,0,Wunderground v.1.15,2013-11-21 07:56:00,
2013-11-21 03:02:00,32.4,26.3,30.55,NE,40,0.0,0.0,78,0.00,,,0.00,0,Wunderground v.1.15,2013-11-21 08:02:00,
2013-11-21 03:08:00,32.3,26.2,30.55,NE,40,0.0,1.0,78,0.00,,,0.00,0,Wunderground v.1.15,2013-11-21 08:08:00,
2013-11-21 03:14:00,32.2,26.1,30.55,NE,40,0.0,0.0,78,0.00,,,0.00,0,Wunderground v.1.15,2013-11-21 08:14:00,
2013-11-21 03:22:00,32.1,26.0,30.55,NE,40,0.0,0.0,78,0.00,,,0.00,0,Wunderground v.1.15,2013-11-21 08:22:00,
2013-11-21 03:28:00,32.0,25.9,30.54,NE,40,0.0,1.0,78,0.00,,,0.00,0,Wunderground v.1.15,2013-11-21 08:28:00,
2013-11-21 03:34:00,32.0,26.2,30.54,NE,40,1.0,2.0,79,0.00,,,0.00,0,Wunderground v.1.15,2013-11-21 08:34:00,
2013-11-21 03:40:00,32.0,26.2,30.54,NE,40,0.0,2.0,79,0.00,,,0.00,0,Wunderground v.1.15,2013-11-21 08:40:00,
2013-11-21 03:46:00,32.0,26.2,30.54,NE,40,0.0,0.0,79,0.00,,,0.00,0,Wunderground v.1.15,2013-11-21 08:46:00,
2013-11-21 03:52:00,31.9,26.1,30.54,NE,40,0.0,0.0,79,0.00,,,0.00,0,Wunderground v.1.15,2013-11-21 08:52:00,
2013-11-21 03:58:00,31.9,26.1,30.54,NE,48,1.0,2.0,79,0.00,,,0.00,0,Wunderground v.1.15,2013-11-21 08:58:00,
2013-11-21 04:04:00,32.1,26.3,30.54,NE,49,1.0,1.0,79,0.00,,,0.00,0,Wunderground v.1.15,2013-11-21 09:04:00,
2013-11-21 04:10:00,32.1,26.0,30.53,ENE,61,1.0,3.0,78,0.00,,,0.00,0,Wunderground v.1.15,2013-11-21 09:10:00,
2013-11-21 04:16:00,32.1,26.0,30.53,ENE,57,1.0,3.0,78,0.00,,,0.00,0,Wunderground v.1.15,2013-11-21 09:16:00,
2013-11-21 04:22:00,32.2,26.1,30.53,NW,325,1.0,1.0,78,0.00,,,0.00,0,Wunderground v.1.15,2013-11-21 09:22:00,
2013-11-21 04:28:00,32.1,26.0,30.53,NE,47,0.0,1.0,78,0.00,,,0.00,0,Wunderground v.1.15,2013-11-21 09:28:00,
2013-11-21 04:34:00,32.1,26.0,30.53,NE,47,0.0,0.0,78,0.00,,,0.00,0,Wunderground v.1.15,2013-11-21 09:34:00,
2013-11-21 04:40:00,32.1,26.3,30.53,NE,55,1.0,1.0,79,0.00,,,0.00,0,Wunderground v.1.15,2013-11-21 09:40:00,
2013-11-21 04:46:00,32.1,26.0,30.54,NE,55,1.0,1.0,78,0.00,,,0.00,0,Wunderground v.1.15,2013-11-21 09:46:00,
2013-11-21 04:52:00,32.1,26.0,30.54,NE,55,0.0,0.0,78,0.00,,,0.00,0,Wunderground v.1.15,2013-11-21 09:52:00,
2013-11-21 04:58:00,32.0,25.9,30.53,NE,56,0.0,2.0,78,0.00,,,0.00,0,Wunderground v.1.15,2013-11-21 09:58:00,
2013-11-21 05:04:00,32.0,26.2,30.53,NE,50,2.0,4.0,79,0.00,,,0.00,0,Wunderground v.1.15,2013-11-21 10:04:00,
2013-11-21 05:10:00,32.0,26.2,30.53,ENE,60,2.0,2.0,79,0.00,,,0.00,0,Wunderground v.1.15,2013-11-21 10:10:00,
2013-11-21 05:16:00,32.0,26.2,30.53,ENE,60,1.0,2.0,79,0.00,,,0.00,0,Wunderground v.1.15,2013-11-21 10:16:00,
2013-11-21 05:22:00,32.1,26.3,30.53,ENE,57,2.0,3.0,79,0.00,,,0.00,0,Wunderground v.1.15,2013-11-21 10:22:00,
2013-11-21 05:28:00,32.2,26.4,30.53,NE,41,2.0,5.0,79,0.00,,,0.00,0,Wunderground v.1.15,2013-11-21 10:28:00,
2013-11-21 05:34:00,32.2,26.4,30.53,NE,44,2.0,4.0,79,0.00,,,0.00,0,Wunderground v.1.15,2013-11-21 10:34:00,
2013-11-21 05:40:00,32.3,26.5,30.53,NNE,19,1.0,1.0,79,0.00,,,0.00,0,Wunderground v.1.15,2013-11-21 10:40:00,
2013-11-21 05:46:00,32.3,26.5,30.53,ENE,57,1.0,4.0,79,0.00,,,0.00,0,Wunderground v.1.15,2013-11-21 10:46:00,
2013-11-21 05:52:00,32.4,26.9,30.53,NE,56,1.0,2.0,80,0.00,,,0.00,0,Wunderground v.1.15,2013-11-21 10:52:00,
2013-11-21 05:58:00,32.4,26.9,30.53,NE,56,1.0,4.0,80,0.00,,,0.00,0,Wunderground v.1.15,2013-11-21 10:58:00,
2013-11-21 06:04:00,32.4,26.9,30.53,NE,52,1.0,2.0,80,0.00,,,0.00,0,Wunderground v.1.15,2013-11-21 11:04:00,
2013-11-21 06:10:00,32.5,27.0,30.53,NE,55,1.0,4.0,80,0.00,,,0.00,0,Wunderground v.1.15,2013-11-21 11:10:00,
2013-11-21 06:16:00,32.5,27.0,30.54,NE,55,2.0,2.0,80,0.00,,,0.00,0,Wunderground v.1.15,2013-11-21 11:16:00,
2013-11-21 06:22:00,32.4,26.9,30.54,NE,54,1.0,1.0,80,0.00,,,0.00,0,Wunderground v.1.15,2013-11-21 11:22:00,
2013-11-21 06:28:00,32.4,26.9,30.54,NE,44,1.0,3.0,80,0.00,,,0.00,0,Wunderground v.1.15,2013-11-21 11:28:00,
2013-11-21 06:34:00,32.3,27.1,30.54,NE,35,1.0,1.0,81,0.00,,,0.00,0,Wunderground v.1.15,2013-11-21 11:34:00,
2013-11-21 06:40:00,32.3,27.1,30.54,NE,53,1.0,2.0,81,0.00,,,0.00,0,Wunderground v.1.15,2013-11-21 11:40:00,
2013-11-21 06:46:00,32.3,27.1,30.54,NE,38,1.0,2.0,81,0.00,,,0.00,0,Wunderground v.1.15,2013-11-21 11:46:00,
2013-11-21 06:52:00,32.3,27.1,30.54,NE,38,1.0,1.0,81,0.00,,,0.00,5,Wunderground v.1.15,2013-11-21 11:52:00,
2013-11-21 06:58:00,32.2,27.0,30.54,NE,52,0.0,1.0,81,0.00,,,0.00,7,Wunderground v.1.15,2013-11-21 11:58:00,
2013-11-21 07:04:00,32.1,27.2,30.54,NE,52,0.0,0.0,82,0.00,,,0.00,9,Wunderground v.1.15,2013-11-21 12:04:00,
2013-11-21 07:10:00,32.1,27.2,30.54,NE,44,0.0,1.0,82,0.00,,,0.00,12,Wunderground v.1.15,2013-11-21 12:10:00,
2013-11-21 07:16:00,32.1,27.2,30.54,NE,44,1.0,1.0,82,0.00,,,0.00,14,Wunderground v.1.15,2013-11-21 12:16:00,
2013-11-21 07:22:00,32.3,27.7,30.54,NE,43,1.0,1.0,83,0.00,,,0.00,18,Wunderground v.1.15,2013-11-21 12:22:00,
2013-11-21 07:28:00,32.4,27.8,30.53,NNE,26,2.0,5.0,83,0.00,,,0.00,19,Wunderground v.1.15,2013-11-21 12:28:00,
2013-11-21 07:34:00,32.7,28.1,30.54,NNE,13,1.0,1.0,83,0.00,,,0.00,21,Wunderground v.1.15,2013-11-21 12:34:00,
2013-11-21 07:40:00,32.9,28.3,30.54,NE,46,1.0,2.0,83,0.00,,,0.00,28,Wunderground v.1.15,2013-11-21 12:40:00,
2013-11-21 07:46:00,33.2,28.6,30.54,NNE,31,1.0,1.0,83,0.00,,,0.00,47,Wunderground v.1.15,2013-11-21 12:46:00,
2013-11-21 07:52:00,33.5,28.9,30.54,NNE,30,1.0,1.0,83,0.00,,,0.00,81,Wunderground v.1.15,2013-11-21 12:52:00,
2013-11-21 07:58:00,33.9,29.3,30.54,NE,45,0.0,1.0,83,0.00,,,0.00,88,Wunderground v.1.15,2013-11-21 12:58:00,
2013-11-21 08:04:00,34.3,29.7,30.54,NE,45,0.0,0.0,83,0.00,,,0.00,142,Wunderground v.1.15,2013-11-21 13:04:00,
2013-11-21 08:10:00,34.8,30.2,30.54,NE,45,0.0,2.0,83,0.00,,,0.00,46,Wunderground v.1.15,2013-11-21 13:10:00,
2013-11-21 08:16:00,35.3,30.7,30.54,NE,45,1.0,1.0,83,0.00,,,0.00,54,Wunderground v.1.15,2013-11-21 13:16:00,
2013-11-21 08:22:00,35.8,31.1,30.54,NE,49,0.0,0.0,83,0.00,,,0.00,77,Wunderground v.1.15,2013-11-21 13:22:00,
2013-11-21 08:28:00,36.4,31.4,30.55,NE,49,0.0,2.0,82,0.00,,,0.00,58,Wunderground v.1.15,2013-11-21 13:28:00,
2013-11-21 08:34:00,37.0,32.0,30.55,NE,44,1.0,4.0,82,0.00,,,0.00,90,Wunderground v.1.15,2013-11-21 13:34:00,
2013-11-21 08:40:00,37.7,32.4,30.55,ENE,57,1.0,4.0,81,0.00,,,0.00,114,Wunderground v.1.15,2013-11-21 13:40:00,
2013-11-21 08:46:00,38.2,32.6,30.54,NNE,28,1.0,2.0,80,0.00,,,0.00,118,Wunderground v.1.15,2013-11-21 13:46:00,
2013-11-21 08:52:00,38.9,32.9,30.54,ENE,58,3.0,4.0,79,0.00,,,0.00,93,Wunderground v.1.15,2013-11-21 13:52:00,
2013-11-21 08:58:00,39.3,33.0,30.54,NE,43,4.0,6.0,78,0.00,,,0.00,54,Wunderground v.1.15,2013-11-21 13:58:00,
2013-11-21 09:04:00,39.8,33.5,30.53,NE,44,4.0,4.0,78,0.00,,,0.00,49,Wunderground v.1.15,2013-11-21 14:04:00,
2013-11-21 09:10:00,40.6,34.3,30.53,NE,35,3.0,4.0,78,0.00,,,0.00,53,Wunderground v.1.15,2013-11-21 14:10:00,
2013-11-21 09:16:00,41.4,34.7,30.53,NE,52,3.0,4.0,77,0.00,,,0.00,58,Wunderground v.1.15,2013-11-21 14:16:00,
2013-11-21 09:22:00,42.1,35.4,30.53,NE,52,2.0,2.0,77,0.00,,,0.00,123,Wunderground v.1.15,2013-11-21 14:22:00,
2013-11-21 09:28:00,42.9,36.2,30.53,NE,56,1.0,2.0,77,0.00,,,0.00,79,Wunderground v.1.15,2013-11-21 14:28:00,
2013-11-21 09:34:00,43.7,36.6,30.53,NE,56,1.0,3.0,76,0.00,,,0.00,58,Wunderground v.1.15,2013-11-21 14:34:00,
2013-11-21 09:40:00,44.9,37.8,30.54,NE,40,1.0,7.0,76,0.00,,,0.00,230,Wunderground v.1.15,2013-11-21 14:40:00,
2013-11-21 09:46:00,46.1,38.6,30.53,NE,42,2.0,4.0,75,0.00,,,0.00,134,Wunderground v.1.15,2013-11-21 14:46:00,
2013-11-21 09:52:00,47.1,39.2,30.54,ENE,57,2.0,2.0,74,0.00,,,0.00,93,Wunderground v.1.15,2013-11-21 14:52:00,
2013-11-21 09:58:00,47.9,39.7,30.54,NE,46,1.0,2.0,73,0.00,,,0.00,128,Wunderground v.1.15,2013-11-21 14:58:00,
2013-11-21 10:04:00,48.6,40.0,30.54,NE,53,1.0,1.0,72,0.00,,,0.00,174,Wunderground v.1.15,2013-11-21 15:04:00,
2013-11-21 10:10:00,49.3,40.3,30.54,ESE,123,1.0,1.0,71,0.00,,,0.00,459,Wunderground v.1.15,2013-11-21 15:10:00,
2013-11-21 10:16:00,49.8,40.8,30.54,SSW,200,0.0,1.0,71,0.00,,,0.00,387,Wunderground v.1.15,2013-11-21 15:16:00,
2013-11-21 10:22:00,50.4,41.3,30.54,ESE,105,0.0,0.0,71,0.00,,,0.00,264,Wunderground v.1.15,2013-11-21 15:22:00,
2013-11-21 10:28:00,51.0,41.6,30.54,North,355,0.0,1.0,70,0.00,,,0.00,185,Wunderground v.1.15,2013-11-21 15:28:00,
2013-11-21 10:34:00,51.7,41.9,30.54,NE,53,1.0,1.0,69,0.00,,,0.00,155,Wunderground v.1.15,2013-11-21 15:34:00,
2013-11-21 10:40:00,52.0,41.8,30.53,SE,126,1.0,2.0,68,0.00,,,0.00,134,Wunderground v.1.15,2013-11-21 15:40:00,
2013-11-21 10:46:00,52.2,42.3,30.53,ESE,117,1.0,1.0,69,0.00,,,0.00,163,Wunderground v.1.15,2013-11-21 15:46:00,
2013-11-21 10:52:00,52.7,42.8,30.52,SE,145,0.0,0.0,69,0.00,,,0.00,239,Wunderground v.1.15,2013-11-21 15:52:00,
2013-11-21 10:58:00,53.3,43.0,30.52,ENE,78,0.0,1.0,68,0.00,,,0.00,376,Wunderground v.1.15,2013-11-21 15:58:00,
2013-11-21 11:04:00,53.9,43.2,30.52,SE,142,1.0,1.0,67,0.00,,,0.00,457,Wunderground v.1.15,2013-11-21 16:04:00,
2013-11-21 11:10:00,54.3,43.2,30.52,SE,142,0.0,1.0,66,0.00,,,0.00,169,Wunderground v.1.15,2013-11-21 16:10:00,
2013-11-21 11:16:00,54.4,43.3,30.51,NE,36,1.0,1.0,66,0.00,,,0.00,367,Wunderground v.1.15,2013-11-21 16:16:00,
2013-11-21 11:22:00,54.7,43.2,30.51,SSE,168,1.0,1.0,65,0.00,,,0.00,223,Wunderground v.1.15,2013-11-21 16:22:00,
2013-11-21 11:28:00,54.9,43.4,30.51,South,176,1.0,1.0,65,0.00,,,0.00,434,Wunderground v.1.15,2013-11-21 16:28:00,
2013-11-21 11:34:00,55.2,43.2,30.50,East,94,1.0,2.0,64,0.00,,,0.00,262,Wunderground v.1.15,2013-11-21 16:34:00,
2013-11-21 11:40:00,55.2,42.8,30.50,ESE,102,1.0,2.0,63,0.00,,,0.00,230,Wunderground v.1.15,2013-11-21 16:40:00,
2013-11-21 11:46:00,55.3,42.9,30.50,East,84,0.0,7.0,63,0.00,,,0.00,267,Wunderground v.1.15,2013-11-21 16:46:00,
2013-11-21 11:52:00,55.5,43.1,30.50,SSW,209,0.0,0.0,63,0.00,,,0.00,250,Wunderground v.1.15,2013-11-21 16:52:00,
2013-11-21 11:58:00,55.7,42.9,30.50,NE,37,1.0,3.0,62,0.00,,,0.00,267,Wunderground v.1.15,2013-11-21 16:58:00,
2013-11-21 12:04:00,55.7,42.9,30.49,SW,219,1.0,3.0,62,0.00,,,0.00,265,Wunderground v.1.15,2013-11-21 17:04:00,
2013-11-21 12:10:00,55.9,42.6,30.49,SW,217,1.0,3.0,61,0.00,,,0.00,244,Wunderground v.1.15,2013-11-21 17:10:00,
2013-11-21 12:16:00,56.0,42.7,30.49,South,175,1.0,4.0,61,0.00,,,0.00,241,Wunderground v.1.15,2013-11-21 17:16:00,
2013-11-21 12:22:00,56.0,43.2,30.49,SW,219,1.0,1.0,62,0.00,,,0.00,294,Wunderground v.1.15,2013-11-21 17:22:00,
2013-11-21 12:28:00,56.2,42.9,30.49,South,187,1.0,1.0,61,0.00,,,0.00,285,Wunderground v.1.15,2013-11-21 17:28:00,
2013-11-21 12:34:00,56.2,42.9,30.48,SSW,196,1.0,1.0,61,0.00,,,0.00,230,Wunderground v.1.15,2013-11-21 17:34:00,
2013-11-21 12:40:00,56.1,42.8,30.48,South,184,1.0,1.0,61,0.00,,,0.00,207,Wunderground v.1.15,2013-11-21 17:40:00,
2013-11-21 12:46:00,55.9,42.6,30.48,NNE,25,1.0,1.0,61,0.00,,,0.00,190,Wunderground v.1.15,2013-11-21 17:46:00,
2013-11-21 12:52:00,55.8,42.5,30.48,SE,145,0.0,0.0,61,0.00,,,0.00,190,Wunderground v.1.15,2013-11-21 17:52:00,
2013-11-21 12:58:00,55.9,42.6,30.47,SE,145,0.0,0.0,61,0.00,,,0.00,149,Wunderground v.1.15,2013-11-21 17:58:00,
2013-11-21 13:04:00,55.8,42.5,30.47,SSE,150,0.0,0.0,61,0.00,,,0.00,162,Wunderground v.1.15,2013-11-21 18:04:00,
2013-11-21 13:10:00,55.8,42.5,30.47,SSE,152,0.0,0.0,61,0.00,,,0.00,163,Wunderground v.1.15,2013-11-21 18:10:00,
2013-11-21 13:16:00,55.8,42.5,30.47,WSW,255,0.0,0.0,61,0.00,,,0.00,176,Wunderground v.1.15,2013-11-21 18:16:00,
2013-11-21 13:22:00,55.7,42.9,30.47,SE,142,0.0,0.0,62,0.00,,,0.00,171,Wunderground v.1.15,2013-11-21 18:22:00,
2013-11-21 13:28:00,55.6,42.8,30.46,SSE,151,0.0,1.0,62,0.00,,,0.00,163,Wunderground v.1.15,2013-11-21 18:28:00,
2013-11-21 13:34:00,55.4,42.6,30.46,SE,138,1.0,1.0,62,0.00,,,0.00,142,Wunderground v.1.15,2013-11-21 18:34:00,
2013-11-21 13:40:00,55.3,42.9,30.46,SSE,147,0.0,1.0,63,0.00,,,0.00,156,Wunderground v.1.15,2013-11-21 18:40:00,
2013-11-21 13:46:00,55.2,42.8,30.46,SSE,159,1.0,5.0,63,0.00,,,0.00,160,Wunderground v.1.15,2013-11-21 18:46:00,
2013-11-21 13:52:00,55.1,43.1,30.45,SE,135,1.0,1.0,64,0.00,,,0.00,169,Wunderground v.1.15,2013-11-21 18:52:00,
2013-11-21 13:58:00,55.0,43.0,30.45,South,186,0.0,1.0,64,0.00,,,0.00,163,Wunderground v.1.15,2013-11-21 18:58:00,
2013-11-21 14:04:00,55.0,43.0,30.45,South,186,0.0,0.0,64,0.00,,,0.00,141,Wunderground v.1.15,2013-11-21 19:04:00,
2013-11-21 14:10:00,55.0,43.0,30.45,ESE,111,0.0,0.0,64,0.00,,,0.00,135,Wunderground v.1.15,2013-11-21 19:10:00,
2013-11-21 14:16:00,54.9,42.9,30.45,ESE,111,0.0,0.0,64,0.00,,,0.00,156,Wunderground v.1.15,2013-11-21 19:16:00,
2013-11-21 14:22:00,55.0,43.4,30.45,ESE,111,0.0,0.0,65,0.00,,,0.00,151,Wunderground v.1.15,2013-11-21 19:22:00,
2013-11-21 14:28:00,54.9,42.9,30.45,SE,139,0.0,0.0,64,0.00,,,0.00,151,Wunderground v.1.15,2013-11-21 19:28:00,
2013-11-21 14:34:00,54.8,42.9,30.45,South,170,0.0,0.0,64,0.00,,,0.00,109,Wunderground v.1.15,2013-11-21 19:34:00,
2013-11-21 14:40:00,54.7,43.2,30.45,South,189,0.0,0.0,65,0.00,,,0.00,111,Wunderground v.1.15,2013-11-21 19:40:00,
2013-11-21 14:46:00,54.6,43.1,30.45,SSE,148,0.0,0.0,65,0.00,,,0.00,137,Wunderground v.1.15,2013-11-21 19:46:00,
2013-11-21 14:52:00,54.7,43.6,30.46,SE,138,0.0,0.0,66,0.00,,,0.00,114,Wunderground v.1.15,2013-11-21 19:52:00,
2013-11-21 14:58:00,54.7,43.6,30.45,SE,138,0.0,0.0,66,0.00,,,0.00,130,Wunderground v.1.15,2013-11-21 19:58:00,
2013-11-21 15:04:00,54.8,44.0,30.45,SE,138,0.0,0.0,67,0.00,,,0.00,98,Wunderground v.1.15,2013-11-21 20:04:00,
2013-11-21 15:10:00,54.7,43.6,30.46,SE,138,0.0,0.0,66,0.00,,,0.00,97,Wunderground v.1.15,2013-11-21 20:10:00,
2013-11-21 15:16:00,54.7,43.6,30.45,SE,138,0.0,0.0,66,0.00,,,0.00,62,Wunderground v.1.15,2013-11-21 20:16:00,
2013-11-21 15:22:00,54.6,43.5,30.45,SE,138,0.0,0.0,66,0.00,,,0.00,49,Wunderground v.1.15,2013-11-21 20:22:00,
2013-11-21 15:28:00,54.4,43.7,30.45,SE,138,0.0,0.0,67,0.00,,,0.00,42,Wunderground v.1.15,2013-11-21 20:28:00,
2013-11-21 15:34:00,54.2,43.5,30.45,SE,138,0.0,0.0,67,0.00,,,0.00,42,Wunderground v.1.15,2013-11-21 20:34:00,
2013-11-21 15:40:00,54.0,43.7,30.45,SE,138,0.0,0.0,68,0.00,,,0.00,47,Wunderground v.1.15,2013-11-21 20:40:00,
2013-11-21 15:46:00,53.9,43.6,30.45,SE,138,0.0,1.0,68,0.00,,,0.00,46,Wunderground v.1.15,2013-11-21 20:46:00,
2013-11-21 15:52:00,53.6,43.7,30.45,SE,138,0.0,0.0,69,0.00,,,0.00,33,Wunderground v.1.15,2013-11-21 20:52:00,
2013-11-21 15:58:00,53.5,44.0,30.44,SE,139,0.0,0.0,70,0.00,,,0.00,32,Wunderground v.1.15,2013-11-21 20:58:00,
2013-11-21 16:04:00,53.2,43.7,30.44,SE,139,0.0,0.0,70,0.00,,,0.00,28,Wunderground v.1.15,2013-11-21 21:04:00,
2013-11-21 16:10:00,53.0,43.8,30.44,SE,139,0.0,0.0,71,0.00,,,0.00,21,Wunderground v.1.15,2013-11-21 21:10:00,
2013-11-21 16:16:00,52.9,43.7,30.44,SE,139,0.0,0.0,71,0.00,,,0.00,16,Wunderground v.1.15,2013-11-21 21:16:00,
2013-11-21 16:22:00,52.7,43.6,30.44,SE,139,0.0,0.0,71,0.00,,,0.00,11,Wunderground v.1.15,2013-11-21 21:22:00,
2013-11-21 16:28:00,52.6,43.8,30.44,SE,139,0.0,0.0,72,0.00,,,0.00,5,Wunderground v.1.15,2013-11-21 21:28:00,
2013-11-21 16:34:00,52.4,44.0,30.44,SE,139,0.0,0.0,73,0.00,,,0.00,0,Wunderground v.1.15,2013-11-21 21:34:00,
2013-11-21 16:40:00,52.2,43.8,30.44,SE,139,0.0,0.0,73,0.00,,,0.00,0,Wunderground v.1.15,2013-11-21 21:40:00,
2013-11-21 16:46:00,52.0,43.6,30.44,SE,139,0.0,0.0,73,0.00,,,0.00,0,Wunderground v.1.15,2013-11-21 21:46:00,
2013-11-21 16:52:00,51.7,43.7,30.44,SE,139,0.0,0.0,74,0.00,,,0.00,0,Wunderground v.1.15,2013-11-21 21:52:00,
2013-11-21 16:58:00,51.5,43.5,30.44,SE,139,0.0,0.0,74,0.00,,,0.00,0,Wunderground v.1.15,2013-11-21 21:58:00,
2013-11-21 17:04:00,51.2,43.5,30.44,SE,139,0.0,0.0,75,0.00,,,0.00,0,Wunderground v.1.15,2013-11-21 22:04:00,
2013-11-21 17:10:00,50.8,43.2,30.44,SE,139,0.0,0.0,75,0.00,,,0.00,0,Wunderground v.1.15,2013-11-21 22:10:00,
2013-11-21 17:16:00,50.6,43.3,30.44,SE,139,0.0,0.0,76,0.00,,,0.00,0,Wunderground v.1.15,2013-11-21 22:16:00,
2013-11-21 17:22:00,50.3,43.0,30.44,SE,139,0.0,0.0,76,0.00,,,0.00,0,Wunderground v.1.15,2013-11-21 22:22:00,
2013-11-21 17:28:00,50.1,43.2,30.44,SE,139,0.0,0.0,77,0.00,,,0.00,0,Wunderground v.1.15,2013-11-21 22:28:00,
2013-11-21 17:34:00,49.9,43.0,30.44,SE,139,0.0,0.0,77,0.00,,,0.00,0,Wunderground v.1.15,2013-11-21 22:34:00,
2013-11-21 17:40:00,49.5,42.9,30.44,SE,139,0.0,0.0,78,0.00,,,0.00,0,Wunderground v.1.15,2013-11-21 22:40:00,
2013-11-21 17:46:00,49.3,42.7,30.44,SE,139,0.0,0.0,78,0.00,,,0.00,0,Wunderground v.1.15,2013-11-21 22:46:00,
2013-11-21 17:52:00,49.0,42.4,30.44,SE,139,0.0,0.0,78,0.00,,,0.00,0,Wunderground v.1.15,2013-11-21 22:52:00,
2013-11-21 17:58:00,48.8,42.2,30.44,SE,139,0.0,0.0,78,0.00,,,0.00,0,Wunderground v.1.15,2013-11-21 22:58:00,
2013-11-21 18:04:00,48.5,42.0,30.44,SE,139,0.0,0.0,78,0.00,,,0.00,0,Wunderground v.1.15,2013-11-21 23:04:00,
2013-11-21 18:10:00,48.2,42.0,30.44,SE,139,0.0,0.0,79,0.00,,,0.00,0,Wunderground v.1.15,2013-11-21 23:10:00,
2013-11-21 18:16:00,47.9,42.0,30.44,SE,139,0.0,0.0,80,0.00,,,0.00,0,Wunderground v.1.15,2013-11-21 23:16:00,
2013-11-21 18:22:00,47.7,42.2,30.44,SE,139,0.0,0.0,81,0.00,,,0.00,0,Wunderground v.1.15,2013-11-21 23:22:00,
2013-11-21 18:28:00,47.5,42.0,30.44,SE,139,0.0,0.0,81,0.00,,,0.00,0,Wunderground v.1.15,2013-11-21 23:28:00,
2013-11-21 18:34:00,47.3,42.1,30.44,SE,139,0.0,0.0,82,0.00,,,0.00,0,Wunderground v.1.15,2013-11-21 23:34:00,
2013-11-21 18:40:00,47.1,42.2,30.43,SE,139,0.0,0.0,83,0.00,,,0.00,0,Wunderground v.1.15,2013-11-21 23:40:00,
2013-11-21 18:46:00,46.9,42.0,30.43,SE,139,0.0,0.0,83,0.00,,,0.00,0,Wunderground v.1.15,2013-11-21 23:46:00,
2013-11-21 18:52:00,46.8,41.9,30.43,SE,139,0.0,0.0,83,0.00,,,0.00,0,Wunderground v.1.15,2013-11-21 23:52:00,
2013-11-21 18:58:00,46.7,42.1,30.43,SE,139,0.0,0.0,84,0.00,,,0.00,0,Wunderground v.1.15,2013-11-21 23:58:00,
2013-11-21 19:04:00,46.6,42.0,30.43,SE,139,0.0,0.0,84,0.00,,,0.00,0,Wunderground v.1.15,2013-11-22 00:04:00,
2013-11-21 19:10:00,46.4,42.1,30.44,SE,139,0.0,0.0,85,0.00,,,0.00,0,Wunderground v.1.15,2013-11-22 00:10:00,
2013-11-21 19:16:00,46.3,42.0,30.43,SE,139,0.0,0.0,85,0.00,,,0.00,0,Wunderground v.1.15,2013-11-22 00:16:00,
2013-11-21 19:22:00,46.3,42.0,30.43,SE,139,0.0,0.0,85,0.00,,,0.00,0,Wunderground v.1.15,2013-11-22 00:22:00,
2013-11-21 19:28:00,46.3,42.0,30.43,SE,139,0.0,0.0,85,0.00,,,0.00,0,Wunderground v.1.15,2013-11-22 00:28:00,
2013-11-21 19:34:00,46.3,42.3,30.43,SE,139,0.0,0.0,86,0.00,,,0.00,0,Wunderground v.1.15,2013-11-22 00:34:00,
2013-11-21 19:40:00,46.3,42.3,30.43,SE,139,0.0,0.0,86,0.00,,,0.00,0,Wunderground v.1.15,2013-11-22 00:40:00,
2013-11-21 19:46:00,46.3,42.3,30.42,SE,139,0.0,0.0,86,0.00,,,0.00,0,Wunderground v.1.15,2013-11-22 00:46:00,
2013-11-21 19:52:00,46.3,42.3,30.42,SE,139,0.0,0.0,86,0.00,,,0.00,0,Wunderground v.1.15,2013-11-22 00:52:00,
2013-11-21 19:58:00,46.3,42.3,30.42,SE,139,0.0,0.0,86,0.00,,,0.00,0,Wunderground v.1.15,2013-11-22 00:58:00,
2013-11-21 20:04:00,46.3,42.3,30.42,SE,139,0.0,0.0,86,0.00,,,0.00,0,Wunderground v.1.15,2013-11-22 01:04:00,
2013-11-21 20:10:00,46.3,42.6,30.42,SE,139,0.0,0.0,87,0.00,,,0.00,0,Wunderground v.1.15,2013-11-22 01:10:00,
2013-11-21 20:16:00,46.3,42.6,30.42,SE,139,0.0,0.0,87,0.00,,,0.00,0,Wunderground v.1.15,2013-11-22 01:16:00,
2013-11-21 20:22:00,46.3,42.6,30.42,SE,139,0.0,0.0,87,0.00,,,0.00,0,Wunderground v.1.15,2013-11-22 01:22:00,
2013-11-21 20:28:00,46.2,42.5,30.42,SE,139,0.0,0.0,87,0.00,,,0.00,0,Wunderground v.1.15,2013-11-22 01:28:00,
2013-11-21 20:34:00,46.1,42.4,30.42,SE,139,0.0,0.0,87,0.00,,,0.00,0,Wunderground v.1.15,2013-11-22 01:34:00,
2013-11-21 20:40:00,46.2,42.5,30.41,SE,139,0.0,0.0,87,0.00,,,0.00,0,Wunderground v.1.15,2013-11-22 01:40:00,
2013-11-21 20:46:00,46.2,42.5,30.41,SE,139,0.0,0.0,87,0.00,,,0.00,0,Wunderground v.1.15,2013-11-22 01:46:00,
2013-11-21 20:52:00,46.2,42.5,30.41,SE,139,0.0,0.0,87,0.00,,,0.00,0,Wunderground v.1.15,2013-11-22 01:52:00,
2013-11-21 20:58:00,46.2,42.5,30.41,SE,139,0.0,0.0,87,0.00,,,0.00,0,Wunderground v.1.15,2013-11-22 01:58:00,
2013-11-21 21:04:00,46.2,42.8,30.41,SE,139,0.0,0.0,88,0.00,,,0.00,0,Wunderground v.1.15,2013-11-22 02:04:00,
2013-11-21 21:10:00,46.1,42.7,30.41,SE,139,0.0,0.0,88,0.00,,,0.00,0,Wunderground v.1.15,2013-11-22 02:10:00,
2013-11-21 21:14:00,46.0,42.3,30.41,SE,139,0.0,0.0,87,0.00,,,0.00,0,Wunderground v.1.15,2013-11-22 02:14:00,
2013-11-21 21:16:00,46.0,42.6,30.41,SE,139,0.0,0.0,88,0.00,,,0.00,0,Wunderground v.1.15,2013-11-22 02:16:00,
2013-11-21 21:18:00,45.9,42.5,30.41,SE,139,0.0,0.0,88,0.00,,,0.00,0,Wunderground v.1.15,2013-11-22 02:18:00,
2013-11-21 21:24:00,45.9,42.5,30.41,SE,139,0.0,0.0,88,0.00,,,0.00,0,Wunderground v.1.15,2013-11-22 02:24:00,
2013-11-21 21:26:00,45.9,42.5,30.41,SE,139,0.0,0.0,88,0.00,,,0.00,0,Wunderground v.1.15,2013-11-22 02:26:00,
2013-11-21 21:32:00,45.9,42.5,30.41,SE,139,0.0,0.0,88,0.00,,,0.00,0,Wunderground v.1.15,2013-11-22 02:32:00,
2013-11-21 21:34:00,45.9,42.5,30.41,SE,139,0.0,0.0,88,0.00,,,0.00,0,Wunderground v.1.15,2013-11-22 02:34:00,
2013-11-21 21:40:00,45.9,42.5,30.41,SE,139,0.0,0.0,88,0.00,,,0.00,0,Wunderground v.1.15,2013-11-22 02:40:00,
2013-11-21 21:46:00,45.9,42.8,30.41,SE,139,0.0,0.0,89,0.00,,,0.00,0,Wunderground v.1.15,2013-11-22 02:46:00,
2013-11-21 21:52:00,46.0,42.9,30.41,SE,139,0.0,0.0,89,0.00,,,0.00,0,Wunderground v.1.15,2013-11-22 02:52:00,
2013-11-21 21:58:00,46.1,43.0,30.41,SE,139,0.0,0.0,89,0.00,,,0.00,0,Wunderground v.1.15,2013-11-22 02:58:00,
2013-11-21 22:04:00,46.1,43.0,30.41,SE,139,0.0,0.0,89,0.00,,,0.00,0,Wunderground v.1.15,2013-11-22 03:04:00,
2013-11-21 22:10:00,46.2,43.1,30.41,SE,139,0.0,0.0,89,0.00,,,0.00,0,Wunderground v.1.15,2013-11-22 03:10:00,
2013-11-21 22:16:00,46.2,43.1,30.40,SE,139,0.0,0.0,89,0.00,,,0.00,0,Wunderground v.1.15,2013-11-22 03:16:00,
2013-11-21 22:22:00,46.2,43.1,30.40,SE,139,0.0,0.0,89,0.00,,,0.00,0,Wunderground v.1.15,2013-11-22 03:22:00,
2013-11-21 22:28:00,46.3,43.2,30.40,SE,139,0.0,0.0,89,0.00,,,0.00,0,Wunderground v.1.15,2013-11-22 03:28:00,
2013-11-21 22:34:00,46.3,43.2,30.40,SE,139,0.0,0.0,89,0.00,,,0.00,0,Wunderground v.1.15,2013-11-22 03:34:00,
2013-11-21 22:40:00,46.4,43.3,30.40,SE,139,0.0,0.0,89,0.00,,,0.00,0,Wunderground v.1.15,2013-11-22 03:40:00,
2013-11-21 22:46:00,46.4,43.3,30.40,SE,139,0.0,0.0,89,0.00,,,0.00,0,Wunderground v.1.15,2013-11-22 03:46:00,
2013-11-21 22:52:00,46.5,43.4,30.40,SE,139,0.0,0.0,89,0.00,,,0.00,0,Wunderground v.1.15,2013-11-22 03:52:00,
2013-11-21 22:58:00,46.6,43.5,30.40,SE,139,0.0,0.0,89,0.00,,,0.00,0,Wunderground v.1.15,2013-11-22 03:58:00,
2013-11-21 23:04:00,46.6,43.5,30.40,SE,139,0.0,0.0,89,0.00,,,0.00,0,Wunderground v.1.15,2013-11-22 04:04:00,
2013-11-21 23:10:00,46.7,43.9,30.40,SE,139,0.0,0.0,90,0.00,,,0.00,0,Wunderground v.1.15,2013-11-22 04:10:00,
2013-11-21 23:16:00,46.7,43.9,30.39,SE,139,0.0,0.0,90,0.00,,,0.00,0,Wunderground v.1.15,2013-11-22 04:16:00,
2013-11-21 23:22:00,46.8,43.7,30.39,SE,139,0.0,0.0,89,0.00,,,0.00,0,Wunderground v.1.15,2013-11-22 04:22:00,
2013-11-21 23:28:00,46.8,43.7,30.39,SE,139,0.0,0.0,89,0.00,,,0.00,0,Wunderground v.1.15,2013-11-22 04:28:00,
2013-11-21 23:34:00,46.8,43.7,30.39,SE,139,0.0,0.0,89,0.00,,,0.00,0,Wunderground v.1.15,2013-11-22 04:34:00,
2013-11-21 23:40:00,46.9,44.1,30.39,SE,139,0.0,0.0,90,0.00,,,0.00,0,Wunderground v.1.15,2013-11-22 04:40:00,
2013-11-21 23:46:00,47.0,44.2,30.39,SE,139,0.0,0.0,90,0.00,,,0.00,0,Wunderground v.1.15,2013-11-22 04:46:00,
2013-11-21 23:52:00,47.0,44.2,30.39,SE,139,0.0,0.0,90,0.00,,,0.00,0,Wunderground v.1.15,2013-11-22 04:52:00,
2013-11-21 23:58:00,47.0,43.9,30.39,SE,139,0.0,0.0,89,0.00,,,0.00,0,Wunderground v.1.15,2013-11-22 04:58:00,